Terminal Aerodrome Forecast
Issued by NWS Omaha/Valley, NE

Home | Current Version | Previous Version | Text Only | Print | Product List | Glossary On
Versions: 1 2 3 4 5 6 7 8 9 10 11 12 13 14 15 16 17 18 19 20 21 22 23 24 25 26 27 28 29 30 31 32 33 34 35 36 37 38 39 40 41 42 43 44 45 46 47 48 49 50
000
FTUS43 KOAX 032053 AAA
TAFOFK
TAF AMD
KOFK 032053Z 0321/0418 16003KT P6SM BKN030
     FM032300 17004KT P6SM SCT030
      TEMPO 0409/0412 4SM BR SKC=

USA.gov is the U.S. government's official web portal to all federal, state and local government web resources and services.